Valdosta, GA

5:25 AM EST on February 21, 2018 (GMT -0500)
Moody Air Force Base

Weather History for KVAD - March, 2013

Change the Weather History Date:

Tuesday, March 19, 2013

  Actual Average Record
Temperature  
Mean Temperature 64 °F -  
Max Temperature 74 °F 71 °F 89 °F (2002)
Min Temperature 52 °F 50 °F 36 °F (2007)
Degree Days  
Heating Degree Days 1    
Growing Degree Days 14 (Base 50)    
Moisture  
Dew Point 58 °F    
Average Humidity 91    
Maximum Humidity 100    
Minimum Humidity 41    
Precipitation  
Precipitation 0.40 in - - ()
Sea Level Pressure  
Sea Level Pressure 29.98 in    
Wind  
Wind Speed 7 mph (WNW)    
Max Wind Speed 15 mph    
Max Gust Speed 25 mph    
Visibility 9 miles    
Events Rain , Thunderstorm    
Averages and records for this station are not official NWS values.
T = Trace of Precipitation, MM = Missing Value Source: NWS Daily Summary

Daily Weather History Graph

Daily Weather History Graph

Search for Another Location

Airport or City:

Trip Planner

Search our weather history database for the weather conditions in past years. The results will help you decide how hot, cold, wet, or windy it might be!

Date:

Astronomy

Mar. 19, 2013 Rise Set
Actual Time 7:37 AM EDT 7:43 PM EDT
Civil Twilight 7:13 AM EDT 8:07 PM EDT
Nautical Twilight 6:45 AM EDT 8:36 PM EDT
Astronomical Twilight 6:17 AM EDT 9:04 PM EDT
Moon 12:48 PM EDT (3/19) 2:08 AM EDT (3/19)
Length of Visible Light 12h 54m
Length of Day
12h 06m
Waxing Crescent, 49% of the Moon is Illuminated
Mar 19
Waxing Crescent
Mar 19
First Quarter
Mar 27
Full
Apr 3
Last Quarter
Apr 10
New

Hourly Weather History & Observations

Time (EDT) Temp. Dew Point Humidity Pressure Visibility Wind Dir Wind Speed Gust Speed Precip Events Conditions
12:00 AM 59.0 °F 59.0 °F 100% 29.99 in 4.0 mi NNE 8.1 mph - N/A Rain Heavy Rain
12:08 AM 59.0 °F 59.0 °F 100% 29.99 in 6.0 mi NE 8.1 mph - N/A Rain Light Rain
12:10 AM 59.0 °F 59.0 °F 100% 29.98 in 7.0 mi NE 9.2 mph - N/A Rain Light Rain
12:12 AM 59.0 °F 59.0 °F 100% 29.98 in 9.0 mi NE 9.2 mph - N/A Rain Light Rain
12:14 AM 59.0 °F 59.0 °F 100% 29.99 in 10.0 mi NE 6.9 mph - N/A Rain Light Rain
12:24 AM 59.0 °F 59.0 °F 100% 29.99 in 9.0 mi NE 6.9 mph - N/A Rain Light Rain
12:36 AM 59.0 °F 59.0 °F 100% 29.98 in 7.0 mi NE 4.6 mph - N/A Rain Rain
12:41 AM 59.0 °F 59.0 °F 100% 29.98 in 6.0 mi Variable 5.8 mph - N/A Rain Light Rain
12:47 AM 59.0 °F 59.0 °F 100% 29.98 in 7.0 mi NE 6.9 mph - N/A Rain Light Rain
12:53 AM 59.0 °F 59.0 °F 100% 29.98 in 10.0 mi NE 4.6 mph - N/A Rain Light Rain
12:58 AM 59.2 °F 58.8 °F 99% 29.99 in 10.0 mi ENE 4.6 mph - 0.10 in Rain Light Rain
1:26 AM 59.0 °F 59.0 °F 100% 29.99 in 8.0 mi Calm Calm - N/A Rain Light Rain
1:29 AM 59.0 °F 59.0 °F 100% 30.00 in 5.0 mi NW 2.3 mph - N/A Rain Rain
1:31 AM 59.0 °F 59.0 °F 100% 29.99 in 3.0 mi Calm Calm - N/A Rain Rain
1:35 AM 59.0 °F 59.0 °F 100% 29.99 in 2.5 mi Calm Calm - N/A Rain Rain
1:45 AM 59.0 °F 59.0 °F 100% 29.98 in 2.5 mi SSE 2.3 mph - N/A Rain Light Rain
1:47 AM 59.0 °F 59.0 °F 100% 29.97 in 3.0 mi SE 4.6 mph - N/A Rain Light Rain
1:49 AM 59.0 °F 59.0 °F 100% 29.97 in 5.0 mi SE 5.8 mph - N/A Rain Light Rain
1:51 AM 59.0 °F 59.0 °F 100% 29.97 in 7.0 mi SE 8.1 mph - N/A Rain Light Rain
1:55 AM 59.0 °F 59.0 °F 100% 29.96 in 10.0 mi ESE 6.9 mph - N/A Rain Light Rain
1:58 AM 59.2 °F 59.0 °F 99% 29.96 in 10.0 mi ESE 8.1 mph - 0.12 in Rain Light Rain
2:58 AM 58.6 °F 58.6 °F 100% 29.87 in 10.0 mi ESE 10.4 mph 25.3 mph 0.07 in Rain Light Rain
2:59 AM 59.0 °F 59.0 °F 100% 29.86 in 10.0 mi East 10.4 mph - N/A   Mostly Cloudy
3:58 AM 58.3 °F 58.3 °F 100% 29.88 in 10.0 mi SSW 3.5 mph - 0.00 in   Overcast
4:17 AM 59.0 °F 59.0 °F 100% 29.90 in 10.0 mi West 5.8 mph - N/A   Scattered Clouds
4:19 AM 59.0 °F 59.0 °F 100% 29.90 in 10.0 mi West 4.6 mph - N/A Rain Light Rain
4:33 AM 59.0 °F 59.0 °F 100% 29.92 in 10.0 mi West 6.9 mph - N/A   Scattered Clouds
4:44 AM 59.0 °F 59.0 °F 100% 29.96 in 10.0 mi West 12.7 mph - N/A Thunderstorm Thunderstorm
4:48 AM 59.0 °F 59.0 °F 100% 29.97 in 10.0 mi West 12.7 mph - N/A Rain , Thunderstorm Light Thunderstorms and Rain
4:49 AM 59.0 °F 59.0 °F 100% 29.98 in 10.0 mi West 12.7 mph - N/A Rain , Thunderstorm Light Thunderstorms and Rain
4:58 AM 59.2 °F 59.2 °F 100% 29.99 in 10.0 mi West 13.8 mph 25.3 mph 0.01 in Rain , Thunderstorm Light Thunderstorms and Rain
4:59 AM 59.0 °F 59.0 °F 100% 29.98 in 10.0 mi West 15.0 mph 25.3 mph N/A Rain Light Rain
5:08 AM 59.0 °F 59.0 °F 100% 29.98 in 10.0 mi West 11.5 mph 24.2 mph N/A Rain , Thunderstorm Light Thunderstorms and Rain
5:09 AM 59.0 °F 59.0 °F 100% 29.98 in 9.0 mi West 10.4 mph - N/A Rain Light Rain
5:11 AM 59.0 °F 59.0 °F 100% 29.98 in 8.0 mi WSW 9.2 mph - N/A Rain Light Rain
5:15 AM 59.0 °F 59.0 °F 100% 29.98 in 6.0 mi West 10.4 mph - N/A Rain , Thunderstorm Thunderstorms and Rain
5:25 AM 59.0 °F 59.0 °F 100% 29.98 in 6.0 mi WSW 6.9 mph - N/A Rain , Thunderstorm Light Thunderstorms and Rain
5:32 AM 59.0 °F 59.0 °F 100% 29.97 in 6.0 mi SSW 6.9 mph - N/A Rain , Thunderstorm Rain
5:40 AM 59.0 °F 59.0 °F 100% 29.90 in 7.0 mi ESE 12.7 mph - N/A Rain , Thunderstorm Light Rain
5:48 AM 59.0 °F 59.0 °F 100% 29.91 in 9.0 mi SSE 9.2 mph - N/A Rain Light Rain
5:58 AM 59.2 °F 59.2 °F 100% 29.95 in 10.0 mi SSW 8.1 mph - 0.10 in Rain , Thunderstorm Light Rain
6:09 AM 59.0 °F 59.0 °F 100% 29.94 in 10.0 mi SSW 6.9 mph - N/A   Mostly Cloudy
6:15 AM 59.0 °F 59.0 °F 100% 29.94 in 10.0 mi SSW 4.6 mph - N/A Rain Light Rain
6:25 AM 59.0 °F 59.0 °F 100% 29.93 in 10.0 mi NNW 1.2 mph - N/A   Mostly Cloudy
6:58 AM 58.6 °F 58.6 °F 100% 29.93 in 10.0 mi South 8.1 mph - 0.00 in   Scattered Clouds
7:40 AM 59.0 °F 59.0 °F 100% 29.96 in 10.0 mi WSW 6.9 mph - N/A   Mostly Cloudy
7:58 AM 58.8 °F 58.8 °F 100% 29.97 in 10.0 mi West 6.9 mph - N/A   Mostly Cloudy
8:12 AM 59.0 °F 59.0 °F 100% 29.97 in 10.0 mi WSW 8.1 mph - N/A   Scattered Clouds
8:58 AM 60.3 °F 60.3 °F 100% 30.00 in 10.0 mi West 9.2 mph - N/A   Clear
9:58 AM 63.3 °F 61.0 °F 92% 30.01 in 10.0 mi WNW 9.2 mph - N/A   Partly Cloudy
10:46 AM 64.4 °F 59.0 °F 83% 30.03 in 10.0 mi WNW 10.4 mph - N/A   Mostly Cloudy
10:58 AM 63.7 °F 59.0 °F 85% 30.04 in 10.0 mi NW 10.4 mph - N/A   Overcast
11:32 AM 64.4 °F 59.0 °F 83% 30.03 in 10.0 mi NW 13.8 mph - N/A   Overcast
11:48 AM 64.4 °F 59.0 °F 83% 30.03 in 10.0 mi NW 10.4 mph - N/A   Overcast
11:54 AM 64.4 °F 59.0 °F 83% 30.03 in 10.0 mi NW 11.5 mph - N/A   Overcast
11:56 AM 64.4 °F 59.0 °F 83% 30.03 in 10.0 mi NW 10.4 mph - N/A   Overcast
12:13 PM 64.4 °F 57.2 °F 77% 30.03 in 10.0 mi NW 9.2 mph - N/A   Overcast
12:24 PM 64.4 °F 57.2 °F 77% 30.03 in 10.0 mi NW 10.4 mph - N/A   Overcast
12:39 PM 66.2 °F 57.2 °F 73% 30.03 in 10.0 mi NNW 10.4 mph - N/A   Overcast
12:40 PM 64.4 °F 57.2 °F 77% 30.03 in 10.0 mi NNW 10.4 mph - N/A   Overcast
12:41 PM 64.4 °F 57.2 °F 77% 30.03 in 10.0 mi NNW 10.4 mph - N/A   Overcast
12:54 PM 66.2 °F 57.2 °F 73% 30.02 in 10.0 mi North 10.4 mph - N/A   Overcast
1:26 PM 68.0 °F 57.2 °F 68% 30.01 in 10.0 mi NW 6.9 mph - N/A   Mostly Cloudy
1:54 PM 69.8 °F 57.2 °F 64% 30.01 in 10.0 mi Variable 6.9 mph - N/A   Clear
2:54 PM 71.6 °F 57.2 °F 60% 29.99 in 10.0 mi NNW 9.2 mph - N/A   Scattered Clouds
3:54 PM 73.4 °F 57.2 °F 57% 29.97 in 10.0 mi WNW 10.4 mph - N/A   Clear
4:54 PM 73.4 °F 55.4 °F 53% 29.96 in 10.0 mi WNW 8.1 mph - N/A   Clear
5:54 PM 73.4 °F 50.0 °F 44% 29.97 in 10.0 mi NNW 9.2 mph - N/A   Clear
6:54 PM 71.6 °F 46.4 °F 41% 29.96 in 10.0 mi NNW 8.1 mph - N/A   Clear
7:58 PM 64.6 °F 46.6 °F 52% 29.98 in 10.0 mi North 4.6 mph - N/A   Clear
8:58 PM 59.4 °F 49.8 °F 71% 30.00 in 10.0 mi NNW 4.6 mph - N/A   Clear
9:58 PM 57.2 °F 49.1 °F 74% 30.02 in 10.0 mi NW 3.5 mph - N/A   Clear
10:58 PM 55.8 °F 48.2 °F 76% 30.03 in 10.0 mi SSW 2.3 mph - N/A   Clear
11:58 PM 52.3 °F 50.9 °F 95% 30.01 in 10.0 mi Calm Calm - N/A   Clear